Terminal Aerodrome Forecast
Issued by NWS Blacksburg, VA

Home | Current Version | Previous Version | Text Only | Print | Product List | Glossary On
Versions: 1 2 3 4 5 6 7 8 9 10 11 12 13 14 15 16 17 18 19 20 21 22 23 24 25 26 27 28 29 30 31 32 33 34 35 36 37 38 39 40 41 42 43 44 45 46 47 48 49 50
000
FTUS41 KRNK 032333
TAFDAN
TAF
KDAN 032333Z 0400/0424 17003KT P6SM BKN005 OVC020
      TEMPO 0400/0402 OVC009
     FM040200 22004KT 4SM BR OVC007
      TEMPO 0402/0405 -RA
     FM040500 23005KT 2SM BR OVC005 WS020/24042KT
     FM041300 24009KT 4SM BR OVC010 WS020/24055KT
     FM041900 24012KT P6SM OVC020=

USA.gov is the U.S. government's official web portal to all federal, state and local government web resources and services.